TimeAKST,TemperatureF,Dew PointF,Humidity,Sea Level PressureIn,VisibilityMPH,Wind Direction,Wind SpeedMPH,Gust SpeedMPH,PrecipitationIn,Events,Conditions,WindDirDegrees,DateUTC
12:53 AM,-26.0,-32.1,73,29.48,8.0,SSW,6.9,-,N/A,,Clear,210,2013-02-24 09:53:00
1:53 AM,-27.9,-34.1,73,29.49,5.0,SSW,8.1,-,N/A,,Haze,210,2013-02-24 10:53:00
2:00 AM,-29.2,-34.6,75,29.48,4.0,SSW,9.2,-,N/A,,Haze,200,2013-02-24 11:00:00
2:53 AM,-27.0,-33.0,73,29.50,5.0,SSW,9.2,-,N/A,,Haze,210,2013-02-24 11:53:00
3:53 AM,-26.0,-32.1,73,29.50,6.0,SW,8.1,-,N/A,,Haze,220,2013-02-24 12:53:00
4:40 AM,-27.4,-32.8,75,29.51,6.0,SSW,6.9,-,N/A,,Haze,200,2013-02-24 13:40:00
4:49 AM,-27.4,-32.8,75,29.51,5.0,SSW,6.9,-,N/A,,Haze,200,2013-02-24 13:49:00
4:53 AM,-27.9,-34.1,73,29.51,5.0,SSW,6.9,-,N/A,,Haze,200,2013-02-24 13:53:00
5:53 AM,-25.1,-31.0,74,29.54,5.0,SSW,6.9,-,N/A,,Haze,210,2013-02-24 14:53:00
6:08 AM,-25.6,-31.0,76,29.53,6.0,SSW,6.9,-,N/A,,Haze,200,2013-02-24 15:08:00
6:53 AM,-25.1,-32.1,70,29.54,10.0,SSW,8.1,-,N/A,,Clear,210,2013-02-24 15:53:00
7:53 AM,-25.1,-31.0,74,29.56,10.0,SSW,8.1,-,N/A,,Clear,210,2013-02-24 16:53:00
8:53 AM,-25.1,-31.0,74,29.57,10.0,SSW,6.9,-,N/A,,Clear,200,2013-02-24 17:53:00
9:53 AM,-27.9,-34.1,73,29.58,10.0,SSW,8.1,-,N/A,,Partly Cloudy,200,2013-02-24 18:53:00
10:53 AM,-25.1,-31.0,74,29.61,10.0,SW,6.9,-,N/A,,Clear,220,2013-02-24 19:53:00
11:53 AM,-22.0,-27.9,74,29.62,10.0,SSW,5.8,-,N/A,,Clear,210,2013-02-24 20:53:00
12:53 PM,-22.0,-27.9,74,29.65,10.0,SSW,5.8,-,N/A,,Clear,210,2013-02-24 21:53:00
1:53 PM,-18.9,-25.1,74,29.66,10.0,SW,6.9,-,N/A,,Mostly Cloudy,230,2013-02-24 22:53:00
2:53 PM,-18.9,-25.1,74,29.66,10.0,WSW,9.2,-,N/A,,Clear,240,2013-02-24 23:53:00
3:53 PM,-18.0,-25.1,70,29.68,10.0,SW,3.5,-,N/A,,Clear,230,2013-02-25 00:53:00
4:53 PM,-18.9,-25.1,74,29.69,10.0,WSW,5.8,-,N/A,,Mostly Cloudy,250,2013-02-25 01:53:00
5:53 PM,-18.9,-25.1,74,29.70,10.0,Calm,Calm,-,N/A,,Overcast,0,2013-02-25 02:53:00
6:53 PM,-18.9,-26.0,70,29.72,10.0,WSW,5.8,-,N/A,,Overcast,240,2013-02-25 03:53:00
7:53 PM,-20.9,-27.9,70,29.73,10.0,WSW,5.8,-,N/A,,Partly Cloudy,240,2013-02-25 04:53:00
8:53 PM,-22.0,-29.0,70,29.74,10.0,SSW,4.6,-,N/A,,Overcast,200,2013-02-25 05:53:00
9:53 PM,-23.1,-29.0,74,29.75,10.0,Calm,Calm,-,N/A,,Partly Cloudy,0,2013-02-25 06:53:00
10:53 PM,-22.0,-27.9,74,29.76,10.0,SSW,3.5,-,N/A,,Overcast,210,2013-02-25 07:53:00
11:53 PM,-20.0,-27.0,70,29.78,5.0,WSW,4.6,-,0.00,Snow,Light Snow,240,2013-02-25 08:53:00